Left ArrowRight Arrow

41.82399, -71.41283

Hourly Observations for January 19, 2017

Temp ( °F °C ) Dew Point ( °F °C ) Humidity (%) Winds ( mph kmh ) Pressure ( in mb ) Visibility ( mi km ) Precip ( " mm )
12:51 am 00:51 Cloudy 35 1.7 32 0 89 89 NNW 8 13 30.01 1016 9 14 0.00 0.00
1:51 am 01:51 Cloudy 35 1.7 33 0.6 93 93 N 5 7 30.01 1016 9 14 0.00 0.00
2:51 am 02:51 Cloudy 34 1.1 32 0 92 92 NNW 6 9 30.01 1016 10 16 0.00 0.00
3:43 am 03:43 Cloudy 34 1.1 32 0 92 92 NNW 5 7 30.00 1016 10 16 0.00 0.00
3:51 am 03:51 Cloudy 34 1.1 32 0 92 92 NNW 6 9 30.01 1016 10 16 0.00 0.00
3:58 am 03:58 Cloudy 34 1 32 0 93 93 N 5 7 30.00 1016 10 16 0.00 0.00
4:51 am 04:51 Cloudy 34 1.1 32 0 92 92 N 3 6 30.01 1016 10 16 0.00 0.00
5:51 am 05:51 Cloudy 35 1.7 32 0 89 89 Calm 30.01 1016 10 16 0.00 0.00
6:24 am 06:24 Cloudy 34 1 32 0 93 93 Calm 30.00 1016 10 16 0.00 0.00
6:51 am 06:51 Mostly Cloudy 35 1.7 32 0 89 89 Calm 30.01 1016 10 16 0.00 0.00
7:51 am 07:51 Mostly Cloudy with Patchy Fog 35 1.7 33 0.6 93 93 Calm 30.00 1016 7 11 0.00 0.00
8:51 am 08:51 Mostly Sunny 38 3.3 35 1.7 89 89 Calm 30.01 1016 10 16 0.00 0.00
9:51 am 09:51 Partly Cloudy 42 5.6 35 1.7 76 76 W 8 13 30.01 1016 10 16 0.00 0.00
10:21 am 10:21 Mostly Cloudy 44 6.7 34 1.1 68 68 WNW 10 17 30.00 1016 10 16 0.00 0.00
10:51 am 10:51 Mostly Cloudy 45 7.2 35 1.7 68 68 WNW 8 13 30.00 1016 10 16 0.00 0.00
11:51 am 11:51 Mostly Cloudy 45 7.2 33 0.6 63 63 N 9 15 29.96 1015 10 16 0.00 0.00
12:13 pm 12:13 Mostly Cloudy 47 8.3 34 1.1 61 61 NNW 13 20 29.94 1014 10 16 0.00 0.00
12:51 pm 12:51 Cloudy 46 7.8 34 1.1 63 63 NNW 9 15 29.95 1014 10 16 0.00 0.00
1:51 pm 13:51 Mostly Cloudy 46 7.8 33 0.6 61 61 N 7 11 29.94 1014 10 16 0.00 0.00
2:51 pm 14:51 Mostly Cloudy 46 7.8 33 0.6 61 61 WNW 6 9 29.94 1014 10 16 0.00 0.00
2:58 pm 14:58 Mostly Cloudy 46 8 34 1 62 62 NNW 6 9 29.94 1014 10 16 0.00 0.00
3:51 pm 15:51 Mostly Cloudy 45 7.2 33 0.6 63 63 NNE 10 17 29.95 1014 10 16 0.00 0.00
4:51 pm 16:51 Mostly Cloudy 44 6.7 33 0.6 65 65 NNE 5 7 29.96 1014 10 16 0.00 0.00
5:51 pm 17:51 Cloudy 44 6.7 33 0.6 65 65 N 7 11 29.97 1015 10 16 0.00 0.00
6:51 pm 18:51 Cloudy 44 6.7 33 0.6 65 65 NNW 6 9 30.00 1016 10 16 0.00 0.00
7:51 pm 19:51 Cloudy 44 6.7 31 -0.6 60 60 NNW 6 9 30.02 1017 10 16 0.00 0.00
8:51 pm 20:51 Cloudy 43 6.1 31 -0.6 63 63 W 6 9 30.03 1017 10 16 0.00 0.00
9:51 pm 21:51 Cloudy 43 6.1 30 -1.1 60 60 NNW 9 15 30.04 1017 10 16 0.00 0.00
10:51 pm 22:51 Cloudy 42 5.6 30 -1.1 62 62 N 12 19 30.01 1016 10 16 0.00 0.00
11:51 pm 23:51 Cloudy 41 5 31 -0.6 67 67 NE 9 15 30.00 1016 10 16 0.00 0.00

Powered by Vaisala Xweather